{"data":{"norad_id":59527,"epoch":"2026-09-21T03:18:52.736832Z","epoch_age_seconds":113084,"freshness":"FRESH","line1":"1 59527U 24073S   26264.13811038  .00029251  00000+0  10617-2 0  9994","line2":"2 59527  43.0048 294.5084 0002371 217.9636 142.1049 15.27782347136061","mean_motion":15.27782347,"eccentricity":0.0002371,"inclination_deg":43.0048,"raan_deg":294.5084,"arg_perigee_deg":217.9636,"mean_anomaly_deg":142.1049,"bstar":0.0010617,"rev_number":13606,"period_min":94.254263562321,"perigee_km":480.81661962189,"apogee_km":484.0699067827,"semimajor_km":6860.5802632023,"source":"CELESTRAK","updated_at":"2026-09-22T09:00:48.966043Z"}}